Bismarck, ND

7:32 AM CDT on September 24, 2017 (GMT -0500)
Bismarck Municipal

Weather History for KBIS - May, 2014

Change the Weather History Date:

Thursday, May 15, 2014

  Actual Average Record
Temperature  
Mean Temperature 43 °F 55 °F  
Max Temperature 62 °F 68 °F 92 °F (1987)
Min Temperature 24 °F 42 °F 24 °F (2014)
Degree Days  
Heating Degree Days 22 10  
Month to date heating degree days 271 185  
Since 1 July heating degree days 8997 8340  
Cooling Degree Days 0 0  
Month to date cooling degree days 0 0  
Year to date cooling degree days 0 1  
Moisture  
Dew Point 24 °F    
Average Humidity 57    
Maximum Humidity 92    
Minimum Humidity 22    
Precipitation  
Precipitation 0.00 in 0.08 in 1.27 in (1876)
Month to date precipitation 0.16 1.04  
Year to date precipitation 3.50 4.11  
Snow  
Snow 0.00 in 0.00 in 1.00 in (1929)
Month to date snowfall T 0.4  
Since 1 July snowfall 40.5 51.2  
Snow Depth 0.00 in    
Sea Level Pressure  
Sea Level Pressure 30.26 in    
Wind  
Wind Speed 4 mph (ENE)    
Max Wind Speed 15 mph    
Max Gust Speed 18 mph    
Visibility 10 miles    
Events      
T = Trace of Precipitation, MM = Missing Value Source: NWS Daily Summary

Daily Weather History Graph

Daily Weather History Graph

Search for Another Location

Airport or City:

Trip Planner

Search our weather history database for the weather conditions in past years. The results will help you decide how hot, cold, wet, or windy it might be!

Date:

Astronomy

May. 15, 2014 Rise Set
Actual Time 6:08 AM CDT 9:11 PM CDT
Civil Twilight 5:32 AM CDT 9:47 PM CDT
Nautical Twilight 4:46 AM CDT 10:33 PM CDT
Astronomical Twilight 3:50 AM CDT 11:30 PM CDT
Moon 10:20 PM CDT (5/15) 6:57 AM CDT (5/15)
Length of Visible Light 16h 14m
Length of Day
15h 02m
Full, 99% of the Moon is Illuminated
May 15
Full
May 21
Last Quarter
May 28
New
Jun 5
First Quarter
Jun 12
Full

Hourly Weather History & Observations

Time (CDT) Temp. Windchill Dew Point Humidity Pressure Visibility Wind Dir Wind Speed Gust Speed Precip Events Conditions
12:52 AM 30.9 °F - 23.0 °F 72% 30.37 in 10.0 mi Calm Calm - N/A   Clear
1:52 AM 28.9 °F 22.8 °F 25.0 °F 85% 30.36 in 10.0 mi NE 5.8 mph - N/A   Clear
2:52 AM 28.9 °F 25.2 °F 24.1 °F 82% 30.36 in 10.0 mi NE 3.5 mph - N/A   Clear
3:52 AM 27.0 °F 20.5 °F 24.1 °F 89% 30.35 in 10.0 mi NE 5.8 mph - N/A   Clear
4:52 AM 26.1 °F 21.9 °F 23.0 °F 88% 30.35 in 10.0 mi NE 3.5 mph - N/A   Clear
5:52 AM 25.0 °F 19.3 °F 23.0 °F 92% 30.35 in 10.0 mi NE 4.6 mph - N/A   Clear
6:52 AM 27.0 °F - 24.1 °F 89% 30.34 in 10.0 mi Calm Calm - N/A   Clear
7:52 AM 33.1 °F - 28.0 °F 82% 30.34 in 10.0 mi Calm Calm - N/A   Clear
8:52 AM 39.9 °F - 28.9 °F 65% 30.33 in 10.0 mi Calm Calm - N/A   Clear
9:52 AM 44.6 °F - 28.4 °F 53% 30.28 in 10.0 mi Calm Calm - N/A   Clear
10:52 AM 48.9 °F - 21.0 °F 33% 30.30 in 10.0 mi Calm Calm - N/A   Clear
11:52 AM 52.0 °F - 18.0 °F 26% 30.29 in 10.0 mi North 4.6 mph - N/A   Clear
12:52 PM 54.0 °F - 19.9 °F 26% 30.27 in 10.0 mi Variable 3.5 mph - N/A   Clear
2:52 PM 57.9 °F - 19.9 °F 23% 30.22 in 10.0 mi Variable 3.5 mph - N/A   Clear
3:52 PM 60.1 °F - 21.9 °F 23% 30.20 in 10.0 mi Variable 3.5 mph - N/A   Clear
4:52 PM 61.0 °F - 23.0 °F 23% 30.17 in 10.0 mi Calm Calm - N/A   Clear
5:52 PM 60.1 °F - 23.0 °F 24% 30.15 in 10.0 mi Variable 3.5 mph - N/A   Clear
6:52 PM 60.1 °F - 21.9 °F 23% 30.14 in 10.0 mi Variable 4.6 mph - N/A   Clear
7:52 PM 59.0 °F - 21.9 °F 24% 30.13 in 10.0 mi North 6.9 mph - N/A   Clear
8:52 PM 52.0 °F - 27.0 °F 38% 30.12 in 10.0 mi ESE 12.7 mph - N/A   Clear
9:52 PM 46.0 °F 41.4 °F 28.0 °F 50% 30.13 in 10.0 mi SE 9.2 mph - N/A   Clear
10:52 PM 42.1 °F 37.1 °F 27.0 °F 55% 30.13 in 10.0 mi SE 8.1 mph - N/A   Clear
11:52 PM 39.9 °F 35.1 °F 30.9 °F 70% 30.13 in 10.0 mi SSE 6.9 mph - N/A   Clear